When you browse on this site, cookies collect data to enhance your experience and personalize the content and advertising you see.
Visit our Privacy Policy to learn more. By continuing to use the site, you agree to this use of cookies and data.
  • In Hungary
  • List of Countries
  • For 7 days
  • Water Temperature
  • Satellite Maps
  • Weather Map
  • News
  • Weather Widgets
  • user-avatar
    Login

    Hourly Weather Bad Neuenahr-Ahrweiler

    Today, 20 February, Wednesday

    Time Temperature Precipitation Wind Pressure Humidity
    00:00 +5°C° 0 mm 1 mps 752 mmHg 85%
    01:00 +4°C° 0 mm 1 mps 752 mmHg 86%
    02:00 +4°C° 0 mm 1 mps 752 mmHg 87%
    03:00 +4°C° 0 mm 1 mps 752 mmHg 87%
    04:00 +4°C° 0 mm 1 mps 752 mmHg 89%
    05:00 +4°C° 0 mm 1 mps 752 mmHg 90%
    06:00 +4°C° 0 mm 1 mps 752 mmHg 91%
    07:00 +4°C° 0 mm 2 mps 752 mmHg 87%
    08:00 +5°C° 0 mm 2 mps 753 mmHg 83%
    09:00 +6°C° 0 mm 2 mps 753 mmHg 80%
    10:00 +8°C° 0 mm 2 mps 753 mmHg 73%
    11:00 +9°C° 0 mm 2 mps 753 mmHg 67%
    12:00 +12°C° 0 mm 2 mps 753 mmHg 61%
    13:00 +12°C° 0 mm 2 mps 753 mmHg 61%
    14:00 +12°C° 0 mm 2 mps 753 mmHg 60%
    15:00 +12°C° 0 mm 2 mps 753 mmHg 59%
    16:00 +10°C° 0 mm 2 mps 753 mmHg 67%
    17:00 +9°C° 0 mm 1 mps 753 mmHg 74%
    18:00 +8°C° 0 mm 1 mps 754 mmHg 81%
    19:00 +7°C° 0 mm 1 mps 754 mmHg 84%
    20:00 +7°C° 0 mm 1 mps 754 mmHg 86%
    21:00 +7°C° 0 mm 1 mps 754 mmHg 89%
    22:00 +6°C° 0 mm 1 mps 754 mmHg 89%
    23:00 +6°C° 0 mm 1 mps 755 mmHg 90%

    Tomorrow, 21 February, Thursday

    Time Temperature Precipitation Wind Pressure Humidity
    00:00 +6°C° 0 mm 1 mps 755 mmHg 90%
    01:00 +6°C° 0 mm 1 mps 755 mmHg 90%
    02:00 +5°C° 0 mm 1 mps 755 mmHg 89%
    03:00 +5°C° 0 mm 1 mps 755 mmHg 88%
    04:00 +5°C° 0 mm 1 mps 755 mmHg 89%
    05:00 +5°C° 0 mm 1 mps 755 mmHg 90%
    06:00 +5°C° 0 mm 1 mps 755 mmHg 91%
    07:00 +6°C° 0 mm 1 mps 756 mmHg 87%
    08:00 +8°C° 0 mm 1 mps 756 mmHg 84%
    09:00 +9°C° 0 mm 1 mps 756 mmHg 80%
    10:00 +10°C° 0 mm 1 mps 756 mmHg 76%
    11:00 +12°C° 0 mm 2 mps 756 mmHg 73%
    12:00 +13°C° 0 mm 2 mps 757 mmHg 69%
    13:00 +13°C° 0 mm 2 mps 756 mmHg 70%
    14:00 +13°C° 0 mm 2 mps 756 mmHg 70%
    15:00 +12°C° 0 mm 2 mps 756 mmHg 71%
    16:00 +11°C° 0 mm 1 mps 756 mmHg 76%
    17:00 +10°C° 0 mm 1 mps 757 mmHg 81%
    18:00 +9°C° 0 mm 1 mps 757 mmHg 86%
    19:00 +8°C° 0 mm 1 mps 757 mmHg 87%
    20:00 +8°C° 0 mm 1 mps 758 mmHg 88%
    21:00 +7°C° 0 mm 1 mps 758 mmHg 90%
    22:00 +7°C° 0 mm 1 mps 758 mmHg 90%
    23:00 +7°C° 0 mm 1 mps 759 mmHg 91%

    Day after tomorrow, 22 February, Friday

    Time Temperature Precipitation Wind Pressure Humidity
    00:00 +6°C° 0 mm 1 mps 759 mmHg 91%
    01:00 +6°C° 0 mm 1 mps 759 mmHg 92%
    02:00 +6°C° 0 mm 1 mps 759 mmHg 92%
    03:00 +6°C° 0 mm 1 mps 759 mmHg 92%
    04:00 +6°C° 0 mm 1 mps 760 mmHg 92%
    05:00 +5°C° 0 mm 0 mps 760 mmHg 93%
    06:00 +5°C° 0 mm 0 mps 760 mmHg 93%
    07:00 +6°C° 0 mm 0 mps 760 mmHg 88%
    08:00 +7°C° 0 mm 0 mps 761 mmHg 84%
    09:00 +9°C° 0 mm 0 mps 761 mmHg 79%
    10:00 +10°C° 0 mm 0 mps 761 mmHg 74%
    11:00 +12°C° 0 mm 1 mps 761 mmHg 69%
    12:00 +14°C° 0 mm 1 mps 761 mmHg 64%
    13:00 +14°C° 0 mm 1 mps 761 mmHg 64%
    14:00 +14°C° 0 mm 1 mps 761 mmHg 65%
    15:00 +14°C° 0 mm 1 mps 761 mmHg 65%
    16:00 +12°C° 0 mm 1 mps 761 mmHg 72%
    17:00 +11°C° 0 mm 1 mps 761 mmHg 79%
    18:00 +9°C° 0 mm 1 mps 761 mmHg 86%
    19:00 +9°C° 0 mm 1 mps 761 mmHg 87%
    20:00 +8°C° 0 mm 0 mps 761 mmHg 89%
    21:00 +7°C° 0 mm 0 mps 762 mmHg 91%
    22:00 +8°C° 0 mm 1 mps 762 mmHg 92%
    23:00 +8°C° 0 mm 1 mps 762 mmHg 93%

    23 February, Saturday

    Time Temperature Precipitation Wind Pressure Humidity
    00:00 +8°C° 0 mm 1 mps 762 mmHg 95%
    01:00 +7°C° 0 mm 1 mps 762 mmHg 95%
    02:00 +7°C° 0 mm 1 mps 761 mmHg 95%
    03:00 +6°C° 0 mm 1 mps 761 mmHg 96%
    04:00 +6°C° 0 mm 1 mps 761 mmHg 96%
    05:00 +6°C° 0 mm 1 mps 761 mmHg 96%
    06:00 +4°C° 0 mm 2 mps 762 mmHg 96%
    07:00 +5°C° 0 mm 2 mps 762 mmHg 91%
    08:00 +6°C° 0 mm 2 mps 762 mmHg 86%
    09:00 +7°C° 0 mm 3 mps 762 mmHg 81%
    10:00 +8°C° 0 mm 3 mps 761 mmHg 73%
    11:00 +9°C° 0 mm 3 mps 761 mmHg 66%
    12:00 +11°C° 0 mm 4 mps 761 mmHg 58%
    13:00 +11°C° 0 mm 3 mps 761 mmHg 56%
    14:00 +11°C° 0 mm 3 mps 760 mmHg 54%
    15:00 +11°C° 0 mm 3 mps 760 mmHg 52%
    16:00 +10°C° 0 mm 3 mps 760 mmHg 57%
    17:00 +8°C° 0 mm 2 mps 761 mmHg 62%
    18:00 +7°C° 0 mm 2 mps 761 mmHg 67%
    19:00 +6°C° 0 mm 2 mps 761 mmHg 69%
    20:00 +6°C° 0 mm 2 mps 761 mmHg 71%
    21:00 +5°C° 0 mm 2 mps 761 mmHg 73%
    22:00 +5°C° 0 mm 2 mps 761 mmHg 74%
    23:00 +5°C° 0 mm 2 mps 761 mmHg 74%

    24 February, Sunday

    Time Temperature Precipitation Wind Pressure Humidity
    00:00 +4°C° 0 mm 2 mps 761 mmHg 75%
    01:00 +4°C° 0 mm 2 mps 761 mmHg 73%
    02:00 +3°C° 0 mm 2 mps 761 mmHg 71%
    03:00 +3°C° 0 mm 2 mps 761 mmHg 69%
    04:00 +3°C° 0 mm 2 mps 761 mmHg 67%
    05:00 +3°C° 0 mm 2 mps 761 mmHg 64%
    06:00 +2°C° 0 mm 2 mps 761 mmHg 61%
    07:00 +4°C° 0 mm 2 mps 761 mmHg 56%
    08:00 +5°C° 0 mm 2 mps 761 mmHg 51%
    09:00 +7°C° 0 mm 2 mps 762 mmHg 46%
    10:00 +8°C° 0 mm 2 mps 761 mmHg 41%
    11:00 +11°C° 0 mm 1 mps 761 mmHg 37%
    12:00 +13°C° 0 mm 1 mps 761 mmHg 33%
    13:00 +13°C° 0 mm 1 mps 761 mmHg 34%
    14:00 +13°C° 0 mm 1 mps 760 mmHg 36%
    15:00 +14°C° 0 mm 1 mps 760 mmHg 37%
    16:00 +12°C° 0 mm 1 mps 760 mmHg 42%
    17:00 +9°C° 0 mm 0 mps 760 mmHg 47%
    18:00 +7°C° 0 mm 0 mps 760 mmHg 52%
    19:00 +7°C° 0 mm 0 mps 760 mmHg 54%
    20:00 +6°C° 0 mm 0 mps 761 mmHg 55%
    21:00 +6°C° 0 mm 0 mps 761 mmHg 56%
    22:00 +5°C° 0 mm 0 mps 761 mmHg 57%
    23:00 +5°C° 0 mm 0 mps 761 mmHg 58%

    25 February, Monday

    Time Temperature Precipitation Wind Pressure Humidity
    00:00 +5°C° 0 mm 0 mps 761 mmHg 59%
    01:00 +4°C° 0 mm 0 mps 761 mmHg 60%
    02:00 +5°C° 0 mm 1 mps 761 mmHg 61%
    03:00 +5°C° 0 mm 1 mps 761 mmHg 62%
    04:00 +4°C° 0 mm 1 mps 761 mmHg 63%
    05:00 +3°C° 0 mm 0 mps 761 mmHg 64%
    06:00 +3°C° 0 mm 0 mps 761 mmHg 65%
    07:00 +4°C° 0 mm 0 mps 761 mmHg 60%
    08:00 +6°C° 0 mm 0 mps 761 mmHg 56%
    09:00 +8°C° 0 mm 0 mps 762 mmHg 51%
    10:00 +10°C° 0 mm 1 mps 761 mmHg 47%
    11:00 +12°C° 0 mm 1 mps 761 mmHg 44%
    12:00 +13°C° 0 mm 1 mps 761 mmHg 40%
    13:00 +13°C° 0 mm 1 mps 761 mmHg 41%
    14:00 +14°C° 0 mm 1 mps 761 mmHg 42%
    15:00 +14°C° 0 mm 1 mps 761 mmHg 43%
    16:00 +12°C° 0 mm 1 mps 761 mmHg 51%
    17:00 +11°C° 0 mm 1 mps 761 mmHg 58%
    18:00 +9°C° 0 mm 1 mps 761 mmHg 66%
    19:00 +8°C° 0 mm 1 mps 761 mmHg 69%
    20:00 +8°C° 0 mm 1 mps 761 mmHg 72%
    21:00 +7°C° 0 mm 1 mps 761 mmHg 76%
    22:00 +7°C° 0 mm 1 mps 761 mmHg 76%
    23:00 +7°C° 0 mm 1 mps 761 mmHg 76%
    Show more